Home > Weather > Biel > Past weeks

Flag for Switzerland Weather for the Past 2 Weeks in Biel, Switzerland

Now
35 °F

Chilly.


Feels Like: 31 °F
Forecast: 27 / 40 °F
Wind: 5 mph from West

Location: Grenchen

Current Time: Feb 11, 2016 at 11:23:53 PM

Latest Report: Feb 11, 2016 at 9:00 PM


Visibility: N/A

Pressure: 29.81 "Hg

Humidity: 85%

Dew point: 31 °F

Location of BielLocation

Historic Weather in Biel — Graph

°F

Biel Temperature Yesterday

Maximum temperature yesterday: 40 °F (at 1:00 PM)
Minimum temperature yesterday: 33 °F (at 6:00 AM)
Average temperature yesterday: 36 °F

High & Low Weather Summary for the Past Weeks

 TemperatureHumidityPressure
High57 °F (Feb 1, 1:00 PM)100% (Jan 27, 10:00 PM)30.56 "Hg (Jan 27, 10:00 PM)
Low26 °F (Jan 30, 6:00 AM)49% (Jan 30, 3:00 PM)29.38 "Hg (Feb 9, 6:00 PM)
Average42 °F88%30.14 "Hg
* Reported Jan 27 9:00 PM — Feb 11 9:00 PM, Biel, Weather by CustomWeather, © 2016

Note: Actual official high and low records may vary slightly from our data, if they occured in-between our weather recording intervals... More about our weather records

Advertising

Biel Weather History for the Previous 24 Hours

 ConditionsComfort  
Time TempWeatherWind HumidityBarometerVisibility
9:00 PM
Thu, Feb 11
35 °FChilly.5 mph85%29.81 "HgN/A
8:00 PM35 °FChilly.3 mph84%29.81 "HgN/A
7:00 PM36 °FChilly.1 mph84%29.80 "HgN/A
6:00 PM39 °FChilly.1 mph69%29.79 "HgN/A
5:00 PM39 °FChilly.3 mph68%29.78 "HgN/A
4:00 PM40 °FQuite cool.2 mph61%29.78 "HgN/A
3:00 PM40 °FQuite cool.2 mph62%29.78 "HgN/A
2:00 PM40 °FChilly.3 mph67%29.80 "HgN/A
1:00 PM40 °FQuite cool.8 mph70%29.84 "HgN/A
12:00 PM38 °FChilly.9 mph80%29.87 "HgN/A
11:00 AM37 °FChilly.6 mph85%29.88 "HgN/A
10:00 AM35 °FChilly.2 mph90%29.88 "HgN/A
9:00 AM33 °FChilly.3 mph93%29.90 "HgN/A
8:00 AM32 °FChilly.2 mph95%29.89 "HgN/A
7:00 AM33 °FChilly.3 mph94%29.89 "HgN/A
6:00 AM33 °FChilly.5 mph94%29.89 "HgN/A
5:00 AM33 °FChilly.7 mph94%29.89 "HgN/A
4:00 AM34 °FChilly.8 mph92%29.88 "HgN/A
Weather by CustomWeather, © 2016

See weather overviewHow to use our weather pages